EW2997 Weather Reports


time (UTC)temp
C
wind
direction
speed
KPH
gust
KPH
rain 1hr
cm
rain 24hr
cm
rain mn
cm
humidity
%
barometer
mb
20260904205432 27 288 4.8 4.8 0.00 0.00 0.00 63 1017.0
20260904202431 29 18 0.0 0.0 0.00 0.00 0.00 59 1017.0
20260904195427 29 32 0.0 0.0 0.00 0.00 0.00 64 1017.7
20260904192425 28 115 0.0 0.0 0.00 0.00 0.00 69 1017.4
20260904185424 27 300 0.0 0.0 0.00 0.00 0.00 67 1017.7
20260904182424 28 303 0.0 0.0 0.00 0.00 0.00 63 1017.7
20260904175419 29 65 3.2 3.2 0.00 0.00 0.00 58 1018.4
20260904172420 29 47 4.8 6.4 0.00 0.00 0.00 65 1018.4
20260904165418 27 276 3.2 3.2 0.00 0.00 0.00 69 1018.7
20260904162415 26 247 1.6 1.6 0.00 0.00 0.00 72 1019.0
20260904155415 26 292 3.2 3.2 0.00 0.00 0.00 72 1019.0
20260904152413 25 38 1.6 1.6 0.00 0.00 0.00 73 1019.5
20260904145410 25 168 0.0 0.0 0.00 0.00 0.00 74 1019.5
20260904142408 25 312 3.2 3.2 0.00 0.00 0.00 77 1019.0
20260904135406 23 90 1.6 1.6 0.00 0.00 0.00 79 1019.5
20260904132404 22 114 0.0 0.0 0.00 0.00 0.00 87 1019.5
20260904125403 23 144 0.0 0.0 0.00 0.00 0.00 77 1019.0
20260904122401 22 82 0.0 0.0 0.00 0.00 0.00 86 1019.0
20260904115358 19 150 0.0 0.0 0.00 0.00 0.00 97 1019.5
20260904112355 18 150 0.0 0.0 0.00 0.00 0.00 97 1019.0
20260904105353 18 149 0.0 0.0 0.00 0.00 0.00 97 1018.7
20260904102349 19 150 0.0 0.0 0.00 0.00 0.00 97 1018.4
20260904095345 19 150 0.0 0.0 0.00 0.00 0.00 97 1018.4
20260904092341 20 221 0.0 0.0 0.00 0.00 0.00 96 1018.7
20260904085337 20 155 1.6 1.6 0.00 0.00 0.00 96 1018.4
20260904082332 20 132 0.0 0.0 0.00 0.00 0.00 96 1018.4
20260904075329 20 132 0.0 0.0 0.00 0.00 0.00 96 1018.4
20260904072326 19 132 0.0 0.0 0.00 0.00 0.00 96 1017.7
20260904065326 19 181 0.0 0.0 0.00 0.00 0.00 96 1017.4
20260904062322 19 180 1.6 1.6 0.00 0.00 0.00 96 1017.7
20260904055319 19 224 0.0 0.0 0.00 0.00 0.00 95 1017.7
20260904052315 20 185 3.2 3.2 0.00 0.00 0.00 94 1018.7
20260904045311 19 192 0.0 0.0 0.00 0.00 0.00 96 1018.7
20260904042308 20 148 0.0 0.0 0.00 0.00 0.00 96 1018.7
20260904035306 20 246 3.2 3.2 0.10 1.68 1.68 95 1018.7
20260904032306 20 76 1.6 1.6 0.08 1.63 1.63 95 1019.5
20260904025300 20 96 3.2 3.2 0.28 1.50 1.50 94 1021.2
20260904022256 20 114 3.2 3.2 0.10 1.35 1.35 95 1020.8
20260904015254 21 186 0.0 0.0 0.10 1.22 1.22 94 1019.5
20260904012252 21 253 4.8 4.8 0.08 1.19 1.19 88 1019.0
20260904005252 23 4 6.4 6.4 0.03 0.99 0.99 83 1019.5
20260904002250 25 187 0.0 0.0 0.00 0.94 0.94 92 1018.4
20260903235247 25 216 3.2 3.2 0.00 0.94 0.94 91 1018.4
20260903232246 26 216 0.0 0.0 0.00 0.94 0.94 91 1018.4
20260903225246 26 216 0.0 0.0 0.00 0.94 0.94 88 1017.7
20260903222243 28 216 0.0 0.0 0.00 0.94 0.94 75 1018.0
20260903215243 29 226 4.8 4.8 0.00 0.94 0.94 69 1017.4